Time,TemperatureF,DewpointF,PressureIn,WindDirection,WindDirectionDegrees,WindSpeedMPH,WindSpeedGustMPH,Humidity,HourlyPrecipIn,Conditions,Clouds,dailyrainin,SolarRadiationWatts/m^2,SoftwareType,DateUTC
2013-07-10 00:02:00,65.8,62.2,29.99,NNE,29,0.0,3.0,88,0.00,,,0.88,0.0,meteohub,2013-07-10 05:02:00,
2013-07-10 00:07:00,65.8,62.2,29.99,NE,43,0.0,2.0,88,0.00,,,0.00,0.0,meteohub,2013-07-10 05:07:00,
2013-07-10 00:12:00,65.7,62.1,29.99,NE,43,0.0,2.0,88,0.00,,,0.00,0.0,meteohub,2013-07-10 05:12:00,
2013-07-10 00:17:00,65.5,62.2,29.99,NNW,340,0.0,2.0,89,0.00,,,0.00,0.0,meteohub,2013-07-10 05:17:00,
2013-07-10 00:22:00,65.3,62.1,29.99,NW,326,0.0,2.0,89,0.00,,,0.00,0.0,meteohub,2013-07-10 05:22:00,
2013-07-10 00:27:00,65.1,61.5,29.99,North,0,0.0,3.0,88,0.00,,,0.00,0.0,meteohub,2013-07-10 05:27:00,
2013-07-10 00:32:00,65.1,61.9,30.00,North,0,0.0,3.0,89,0.00,,,0.00,0.0,meteohub,2013-07-10 05:32:00,
2013-07-10 00:37:00,64.9,61.7,30.00,North,0,0.0,2.0,89,0.00,,,0.00,0.0,meteohub,2013-07-10 05:37:00,
2013-07-10 00:42:00,64.8,61.5,30.00,NNW,348,0.0,2.0,89,0.00,,,0.00,0.0,meteohub,2013-07-10 05:42:00,
2013-07-10 00:47:00,64.8,61.5,30.00,NNW,348,0.0,2.0,89,0.00,,,0.00,0.0,meteohub,2013-07-10 05:47:00,
2013-07-10 00:52:00,64.6,61.3,30.00,NW,322,0.0,2.0,89,0.00,,,0.00,0.0,meteohub,2013-07-10 05:52:00,
2013-07-10 00:57:00,64.2,61.0,30.00,North,355,0.0,2.0,89,0.00,,,0.00,0.0,meteohub,2013-07-10 05:57:00,
2013-07-10 01:02:00,64.2,61.2,30.00,NNE,22,0.0,2.0,90,0.00,,,0.00,0.0,meteohub,2013-07-10 06:02:00,
2013-07-10 01:07:00,64.0,61.0,30.00,NNE,22,0.0,2.0,90,0.00,,,0.00,0.0,meteohub,2013-07-10 06:07:00,
2013-07-10 01:12:00,63.9,60.8,30.00,NNE,22,1.0,2.0,90,0.00,,,0.00,0.0,meteohub,2013-07-10 06:12:00,
2013-07-10 01:17:00,63.7,60.6,30.00,NNE,22,0.0,2.0,90,0.00,,,0.00,0.0,meteohub,2013-07-10 06:17:00,
2013-07-10 01:22:00,63.3,60.3,30.00,NNE,22,0.0,1.0,90,0.00,,,0.00,0.0,meteohub,2013-07-10 06:22:00,
2013-07-10 01:27:00,63.1,60.1,30.01,NNE,22,0.0,1.0,90,0.00,,,0.00,0.0,meteohub,2013-07-10 06:27:00,
2013-07-10 01:32:00,63.1,60.1,30.01,NNE,22,0.0,0.0,90,0.00,,,0.00,0.0,meteohub,2013-07-10 06:32:00,
2013-07-10 01:37:00,63.0,59.9,30.01,NNE,22,0.0,0.0,90,0.00,,,0.00,0.0,meteohub,2013-07-10 06:37:00,
2013-07-10 01:42:00,62.8,60.1,30.01,NNE,22,0.0,0.0,91,0.00,,,0.00,0.0,meteohub,2013-07-10 06:42:00,
2013-07-10 01:47:00,62.4,59.7,30.01,NNE,22,0.0,0.0,91,0.00,,,0.00,0.0,meteohub,2013-07-10 06:47:00,
2013-07-10 01:52:00,62.2,59.9,30.01,NNE,22,0.0,0.0,92,0.00,,,0.00,0.0,meteohub,2013-07-10 06:52:00,
2013-07-10 01:57:00,62.2,59.9,30.01,NNE,22,0.0,0.0,92,0.00,,,0.00,0.0,meteohub,2013-07-10 06:57:00,
2013-07-10 02:02:00,62.1,60.1,30.01,NNE,22,0.0,0.0,93,0.00,,,0.00,0.0,meteohub,2013-07-10 07:02:00,
2013-07-10 02:07:00,61.9,59.9,30.01,NNE,22,0.0,0.0,93,0.00,,,0.00,0.0,meteohub,2013-07-10 07:07:00,
2013-07-10 02:12:00,61.7,59.7,30.01,NNE,22,0.0,0.0,93,0.00,,,0.00,0.0,meteohub,2013-07-10 07:12:00,
2013-07-10 02:17:00,61.7,59.7,30.01,NNE,22,0.0,0.0,93,0.00,,,0.00,0.0,meteohub,2013-07-10 07:17:00,
2013-07-10 02:22:00,61.5,59.5,30.01,NNE,22,0.0,0.0,93,0.00,,,0.00,0.0,meteohub,2013-07-10 07:22:00,
2013-07-10 02:27:00,61.3,59.4,30.02,NNE,22,0.0,0.0,93,0.00,,,0.00,0.0,meteohub,2013-07-10 07:27:00,
2013-07-10 02:32:00,61.3,59.4,30.02,NNE,22,0.0,0.0,93,0.00,,,0.00,0.0,meteohub,2013-07-10 07:32:00,
2013-07-10 02:37:00,61.3,59.4,30.02,NNE,22,0.0,0.0,93,0.00,,,0.00,0.0,meteohub,2013-07-10 07:37:00,
2013-07-10 02:42:00,61.2,58.8,30.02,NNE,22,0.0,0.0,92,0.00,,,0.00,0.0,meteohub,2013-07-10 07:42:00,
2013-07-10 02:47:00,61.3,59.0,30.02,NNE,22,0.0,0.0,92,0.00,,,0.00,0.0,meteohub,2013-07-10 07:47:00,
2013-07-10 02:52:00,61.3,59.0,30.02,NNE,22,0.0,1.0,92,0.00,,,0.00,0.0,meteohub,2013-07-10 07:52:00,
2013-07-10 02:57:00,61.3,59.0,30.03,NNE,22,0.0,1.0,92,0.00,,,0.00,0.0,meteohub,2013-07-10 07:57:00,
2013-07-10 03:02:00,61.3,59.0,30.03,NNE,22,0.0,0.0,92,0.00,,,0.00,0.0,meteohub,2013-07-10 08:02:00,
2013-07-10 03:07:00,61.3,58.6,30.03,North,355,0.0,2.0,91,0.00,,,0.00,0.0,meteohub,2013-07-10 08:07:00,
2013-07-10 03:12:00,61.2,58.5,30.03,North,355,0.0,2.0,91,0.00,,,0.00,0.0,meteohub,2013-07-10 08:12:00,
2013-07-10 03:17:00,61.2,58.5,30.03,North,355,0.0,2.0,91,0.00,,,0.00,0.0,meteohub,2013-07-10 08:17:00,
2013-07-10 03:22:00,61.2,58.8,30.03,NNE,12,0.0,2.0,92,0.00,,,0.00,0.0,meteohub,2013-07-10 08:22:00,
2013-07-10 03:27:00,61.0,58.3,30.03,North,11,0.0,2.0,91,0.00,,,0.00,0.0,meteohub,2013-07-10 08:27:00,
2013-07-10 03:32:00,61.0,58.3,30.04,North,11,0.0,2.0,91,0.00,,,0.00,0.0,meteohub,2013-07-10 08:32:00,
2013-07-10 03:37:00,61.0,58.3,30.04,NNW,347,0.0,4.0,91,0.00,,,0.00,0.0,meteohub,2013-07-10 08:37:00,
2013-07-10 03:42:00,61.0,58.3,30.04,North,355,2.0,4.0,91,0.00,,,0.00,0.0,meteohub,2013-07-10 08:42:00,
2013-07-10 03:47:00,60.8,58.1,30.04,North,355,0.0,4.0,91,0.00,,,0.00,0.0,meteohub,2013-07-10 08:47:00,
2013-07-10 03:52:00,60.6,57.9,30.04,North,355,0.0,2.0,91,0.00,,,0.00,0.0,meteohub,2013-07-10 08:52:00,
2013-07-10 03:57:00,60.4,57.7,30.04,North,355,0.0,2.0,91,0.00,,,0.00,0.0,meteohub,2013-07-10 08:57:00,
2013-07-10 04:02:00,60.4,58.1,30.04,North,355,0.0,1.0,92,0.00,,,0.00,0.0,meteohub,2013-07-10 09:02:00,
2013-07-10 04:07:00,60.3,57.9,30.04,North,5,0.0,2.0,92,0.00,,,0.00,0.0,meteohub,2013-07-10 09:07:00,
2013-07-10 04:12:00,60.3,57.9,30.04,North,5,0.0,3.0,92,0.00,,,0.00,0.0,meteohub,2013-07-10 09:12:00,
2013-07-10 04:17:00,60.3,57.9,30.04,North,5,0.0,3.0,92,0.00,,,0.00,0.0,meteohub,2013-07-10 09:17:00,
2013-07-10 04:22:00,60.1,57.7,30.05,North,5,0.0,2.0,92,0.00,,,0.00,0.0,meteohub,2013-07-10 09:22:00,
2013-07-10 04:27:00,59.9,57.6,30.05,North,5,0.0,2.0,92,0.00,,,0.00,0.0,meteohub,2013-07-10 09:27:00,
2013-07-10 04:32:00,59.9,57.9,30.05,North,5,0.0,2.0,93,0.00,,,0.00,0.0,meteohub,2013-07-10 09:32:00,
2013-07-10 04:37:00,59.5,57.2,30.05,North,5,0.0,2.0,92,0.00,,,0.00,0.0,meteohub,2013-07-10 09:37:00,
2013-07-10 04:42:00,59.4,57.4,30.05,North,5,0.0,0.0,93,0.00,,,0.00,0.0,meteohub,2013-07-10 09:42:00,
2013-07-10 04:47:00,59.2,57.2,30.05,North,5,0.0,0.0,93,0.00,,,0.00,0.0,meteohub,2013-07-10 09:47:00,
2013-07-10 04:52:00,59.2,57.4,30.05,North,5,0.0,0.0,94,0.00,,,0.00,0.0,meteohub,2013-07-10 09:52:00,
2013-07-10 04:57:00,58.8,57.0,30.06,North,5,0.0,0.0,94,0.00,,,0.00,0.0,meteohub,2013-07-10 09:57:00,
2013-07-10 05:02:00,58.8,57.0,30.06,North,5,0.0,0.0,94,0.00,,,0.00,0.0,meteohub,2013-07-10 10:02:00,
2013-07-10 05:07:00,58.8,57.0,30.06,North,5,0.0,0.0,94,0.00,,,0.00,0.0,meteohub,2013-07-10 10:07:00,
2013-07-10 05:12:00,58.6,56.8,30.06,North,5,0.0,0.0,94,0.00,,,0.00,0.0,meteohub,2013-07-10 10:12:00,
2013-07-10 05:17:00,58.6,56.8,30.06,North,5,0.0,0.0,94,0.00,,,0.00,0.0,meteohub,2013-07-10 10:17:00,
2013-07-10 05:22:00,58.5,56.7,30.06,North,5,0.0,0.0,94,0.00,,,0.00,0.0,meteohub,2013-07-10 10:22:00,
2013-07-10 05:27:00,58.6,56.8,30.05,North,5,0.0,0.0,94,0.00,,,0.00,0.0,meteohub,2013-07-10 10:27:00,
2013-07-10 05:32:00,58.6,56.8,30.06,North,5,0.0,0.0,94,0.00,,,0.00,0.0,meteohub,2013-07-10 10:32:00,
2013-07-10 05:37:00,58.6,56.8,30.06,North,5,0.0,0.0,94,0.00,,,0.00,0.0,meteohub,2013-07-10 10:37:00,
2013-07-10 05:42:00,58.6,56.8,30.06,NW,321,0.0,0.0,94,0.00,,,0.00,0.0,meteohub,2013-07-10 10:42:00,
2013-07-10 05:47:00,58.6,56.8,30.06,NW,321,0.0,3.0,94,0.00,,,0.00,0.0,meteohub,2013-07-10 10:47:00,
2013-07-10 05:52:00,58.6,56.8,30.06,North,5,0.0,3.0,94,0.00,,,0.00,5.0,meteohub,2013-07-10 10:52:00,
2013-07-10 05:57:00,58.5,56.7,30.07,North,5,0.0,1.0,94,0.00,,,0.00,5.0,meteohub,2013-07-10 10:57:00,
2013-07-10 06:02:00,58.5,56.7,30.07,North,5,0.0,1.0,94,0.00,,,0.00,7.0,meteohub,2013-07-10 11:02:00,
2013-07-10 06:07:00,58.5,57.0,30.07,North,5,0.0,1.0,95,0.00,,,0.00,9.0,meteohub,2013-07-10 11:07:00,
2013-07-10 06:13:00,58.5,57.0,30.07,North,5,0.0,1.0,95,0.00,,,0.00,11.0,meteohub,2013-07-10 11:13:00,
2013-07-10 06:18:00,58.3,56.8,30.08,North,5,0.0,1.0,95,0.00,,,0.00,12.0,meteohub,2013-07-10 11:18:00,
2013-07-10 06:23:00,58.3,56.8,30.08,North,5,0.0,1.0,95,0.00,,,0.00,14.0,meteohub,2013-07-10 11:23:00,
2013-07-10 06:28:00,58.3,56.8,30.08,North,0,0.0,0.0,95,0.00,,,0.00,16.0,meteohub,2013-07-10 11:28:00,
2013-07-10 06:33:00,58.3,56.8,30.08,NNW,332,3.0,3.0,95,0.00,,,0.00,19.0,meteohub,2013-07-10 11:33:00,
2013-07-10 06:38:00,58.5,57.0,30.08,NW,306,2.0,3.0,95,0.00,,,0.00,21.0,meteohub,2013-07-10 11:38:00,
2013-07-10 06:43:00,58.5,57.0,30.08,NW,306,0.0,3.0,95,0.00,,,0.00,23.0,meteohub,2013-07-10 11:43:00,
2013-07-10 06:48:00,58.6,57.2,30.08,North,9,0.0,3.0,95,0.00,,,0.00,25.0,meteohub,2013-07-10 11:48:00,
2013-07-10 06:53:00,58.6,57.2,30.08,NNW,329,2.0,3.0,95,0.00,,,0.00,26.0,meteohub,2013-07-10 11:53:00,
2013-07-10 06:58:00,58.6,57.2,30.08,North,0,0.0,3.0,95,0.00,,,0.00,28.0,meteohub,2013-07-10 11:58:00,
2013-07-10 07:03:00,58.8,57.0,30.09,North,0,0.0,3.0,94,0.00,,,0.00,32.0,meteohub,2013-07-10 12:03:00,
2013-07-10 07:08:00,59.0,57.2,30.09,North,0,0.0,3.0,94,0.00,,,0.00,33.0,meteohub,2013-07-10 12:08:00,
2013-07-10 07:13:00,59.2,57.4,30.09,North,0,0.0,2.0,94,0.00,,,0.00,37.0,meteohub,2013-07-10 12:13:00,
2013-07-10 07:18:00,59.4,57.6,30.09,North,0,0.0,1.0,94,0.00,,,0.00,40.0,meteohub,2013-07-10 12:18:00,
2013-07-10 07:23:00,59.5,57.7,30.09,North,0,0.0,2.0,94,0.00,,,0.00,44.0,meteohub,2013-07-10 12:23:00,
2013-07-10 07:28:00,59.7,57.9,30.09,North,0,0.0,2.0,94,0.00,,,0.00,46.0,meteohub,2013-07-10 12:28:00,
2013-07-10 07:33:00,60.1,58.3,30.09,North,0,0.0,1.0,94,0.00,,,0.00,47.0,meteohub,2013-07-10 12:33:00,
2013-07-10 07:38:00,60.3,58.5,30.09,North,0,0.0,1.0,94,0.00,,,0.00,51.0,meteohub,2013-07-10 12:38:00,
2013-07-10 07:43:00,60.4,58.6,30.09,North,0,0.0,0.0,94,0.00,,,0.00,53.0,meteohub,2013-07-10 12:43:00,
2013-07-10 07:48:00,60.6,58.8,30.09,NNW,332,0.0,0.0,94,0.00,,,0.00,54.0,meteohub,2013-07-10 12:48:00,
2013-07-10 07:53:00,61.0,59.0,30.09,NNW,332,0.0,1.0,93,0.00,,,0.00,58.0,meteohub,2013-07-10 12:53:00,
2013-07-10 07:58:00,61.2,59.2,30.09,NNW,338,1.0,1.0,93,0.00,,,0.00,62.0,meteohub,2013-07-10 12:58:00,
2013-07-10 08:03:00,61.5,58.8,30.09,West,272,0.0,3.0,91,0.00,,,0.00,70.0,meteohub,2013-07-10 13:03:00,
2013-07-10 08:08:00,62.2,59.5,30.09,West,272,0.0,3.0,91,0.00,,,0.00,243.0,meteohub,2013-07-10 13:08:00,
2013-07-10 08:13:00,62.6,59.5,30.09,West,272,0.0,3.0,90,0.00,,,0.00,257.0,meteohub,2013-07-10 13:13:00,
2013-07-10 08:18:00,63.1,60.1,30.09,West,272,1.0,3.0,90,0.00,,,0.00,269.0,meteohub,2013-07-10 13:18:00,
2013-07-10 08:23:00,63.7,60.4,30.09,North,355,0.0,2.0,89,0.00,,,0.00,287.0,meteohub,2013-07-10 13:23:00,
2013-07-10 08:28:00,64.0,60.1,30.09,North,355,0.0,3.0,87,0.00,,,0.00,309.0,meteohub,2013-07-10 13:28:00,
2013-07-10 08:33:00,64.2,59.9,30.09,NNE,13,0.0,4.0,86,0.00,,,0.00,329.0,meteohub,2013-07-10 13:33:00,
2013-07-10 08:38:00,64.9,60.6,30.09,North,5,0.0,4.0,86,0.00,,,0.00,343.0,meteohub,2013-07-10 13:38:00,
2013-07-10 08:43:00,65.3,59.7,30.09,WNW,292,1.0,4.0,82,0.00,,,0.00,357.0,meteohub,2013-07-10 13:43:00,
2013-07-10 08:48:00,65.5,59.9,30.09,WNW,292,0.0,3.0,82,0.00,,,0.00,371.0,meteohub,2013-07-10 13:48:00,
2013-07-10 08:53:00,65.7,60.1,30.09,North,0,0.0,3.0,82,0.00,,,0.00,385.0,meteohub,2013-07-10 13:53:00,
2013-07-10 08:58:00,65.7,60.4,30.09,West,269,1.0,3.0,83,0.00,,,0.00,397.0,meteohub,2013-07-10 13:58:00,
2013-07-10 09:03:00,65.7,60.4,30.09,West,269,0.0,3.0,83,0.00,,,0.00,413.0,meteohub,2013-07-10 14:03:00,
2013-07-10 09:08:00,66.2,60.3,30.09,West,272,0.0,3.0,81,0.00,,,0.00,425.0,meteohub,2013-07-10 14:08:00,
2013-07-10 09:13:00,66.4,59.7,30.09,NNE,21,0.0,3.0,79,0.00,,,0.00,438.0,meteohub,2013-07-10 14:13:00,
2013-07-10 09:18:00,66.7,61.3,30.09,NNW,337,1.0,3.0,83,0.00,,,0.00,452.0,meteohub,2013-07-10 14:18:00,
2013-07-10 09:23:00,66.9,60.6,30.09,NW,306,0.0,3.0,80,0.00,,,0.00,469.0,meteohub,2013-07-10 14:23:00,
2013-07-10 09:28:00,67.3,60.3,30.09,NNW,334,0.0,3.0,78,0.00,,,0.00,480.0,meteohub,2013-07-10 14:28:00,
2013-07-10 09:33:00,67.3,61.2,30.09,West,261,0.0,3.0,81,0.00,,,0.00,494.0,meteohub,2013-07-10 14:33:00,
2013-07-10 09:38:00,67.6,61.9,30.09,West,261,0.0,4.0,82,0.00,,,0.00,506.0,meteohub,2013-07-10 14:38:00,
2013-07-10 09:43:00,67.6,60.3,30.09,West,262,0.0,4.0,77,0.00,,,0.00,517.0,meteohub,2013-07-10 14:43:00,
2013-07-10 09:48:00,68.2,61.0,30.09,WNW,282,2.0,3.0,78,0.00,,,0.00,531.0,meteohub,2013-07-10 14:48:00,
2013-07-10 09:53:00,68.5,61.7,30.09,WNW,292,0.0,3.0,79,0.00,,,0.00,543.0,meteohub,2013-07-10 14:53:00,
2013-07-10 09:58:00,68.7,61.2,30.09,North,355,0.0,5.0,77,0.00,,,0.00,555.0,meteohub,2013-07-10 14:58:00,
2013-07-10 10:03:00,68.7,60.8,30.09,WNW,302,0.0,5.0,76,0.00,,,0.00,566.0,meteohub,2013-07-10 15:03:00,
2013-07-10 10:08:00,68.9,62.1,30.09,NW,311,0.0,5.0,79,0.00,,,0.00,580.0,meteohub,2013-07-10 15:08:00,
2013-07-10 10:14:00,68.7,61.5,30.09,West,267,0.0,5.0,78,0.00,,,0.00,596.0,meteohub,2013-07-10 15:14:00,
2013-07-10 10:19:00,69.3,62.8,30.09,West,264,1.0,5.0,80,0.00,,,0.00,605.0,meteohub,2013-07-10 15:19:00,
2013-07-10 10:24:00,69.4,61.9,30.09,West,265,0.0,5.0,77,0.00,,,0.00,617.0,meteohub,2013-07-10 15:24:00,
2013-07-10 10:29:00,69.8,61.9,30.09,NNE,15,3.0,5.0,76,0.00,,,0.00,631.0,meteohub,2013-07-10 15:29:00,
2013-07-10 10:33:00,70.2,62.6,30.09,West,271,0.0,4.0,77,0.00,,,0.00,638.0,meteohub,2013-07-10 15:33:00,
2013-07-10 10:39:00,70.0,62.1,30.09,West,279,0.0,4.0,76,0.00,,,0.00,650.0,meteohub,2013-07-10 15:39:00,
2013-07-10 10:44:00,70.5,63.0,30.09,West,267,4.0,4.0,77,0.00,,,0.00,664.0,meteohub,2013-07-10 15:44:00,
2013-07-10 10:49:00,70.7,62.8,30.09,WSW,258,3.0,5.0,76,0.00,,,0.00,679.0,meteohub,2013-07-10 15:49:00,
2013-07-10 10:54:00,70.7,61.2,30.09,NNW,347,0.0,6.0,72,0.00,,,0.00,687.0,meteohub,2013-07-10 15:54:00,
2013-07-10 10:59:00,71.2,62.1,30.09,West,259,2.0,6.0,73,0.00,,,0.00,696.0,meteohub,2013-07-10 15:59:00,
2013-07-10 11:04:00,71.2,63.0,30.09,WSW,250,1.0,6.0,75,0.00,,,0.00,705.0,meteohub,2013-07-10 16:04:00,
2013-07-10 11:09:00,71.1,62.4,30.09,NNW,340,4.0,4.0,74,0.00,,,0.00,714.0,meteohub,2013-07-10 16:09:00,
2013-07-10 11:14:00,71.4,61.5,30.09,NNE,19,2.0,5.0,71,0.00,,,0.00,724.0,meteohub,2013-07-10 16:14:00,
2013-07-10 11:19:00,71.8,62.6,30.09,WSW,254,0.0,7.0,73,0.00,,,0.00,731.0,meteohub,2013-07-10 16:19:00,
2013-07-10 11:24:00,71.8,63.0,30.09,WSW,257,1.0,7.0,74,0.00,,,0.00,742.0,meteohub,2013-07-10 16:24:00,
2013-07-10 11:29:00,72.1,63.9,30.09,NNW,348,0.0,4.0,75,0.00,,,0.00,749.0,meteohub,2013-07-10 16:29:00,
2013-07-10 11:34:00,72.7,61.5,30.09,NE,39,2.0,4.0,68,0.00,,,0.00,758.0,meteohub,2013-07-10 16:34:00,
2013-07-10 11:39:00,72.9,61.7,30.09,WSW,258,3.0,5.0,68,0.00,,,0.00,768.0,meteohub,2013-07-10 16:39:00,
2013-07-10 11:44:00,72.9,64.0,30.09,NW,318,0.0,5.0,74,0.00,,,0.00,775.0,meteohub,2013-07-10 16:44:00,
2013-07-10 11:49:00,73.0,62.6,30.09,West,267,1.0,5.0,70,0.00,,,0.00,784.0,meteohub,2013-07-10 16:49:00,
2013-07-10 11:54:00,73.2,62.8,30.09,WNW,288,2.0,5.0,70,0.00,,,0.00,791.0,meteohub,2013-07-10 16:54:00,
2013-07-10 11:59:00,73.8,63.3,30.09,WNW,286,1.0,4.0,70,0.00,,,0.00,803.0,meteohub,2013-07-10 16:59:00,
2013-07-10 12:04:00,73.8,61.3,30.08,NE,42,1.0,4.0,65,0.00,,,0.00,800.0,meteohub,2013-07-10 17:04:00,
2013-07-10 12:09:00,74.1,63.7,30.08,WNW,290,1.0,4.0,70,0.00,,,0.00,816.0,meteohub,2013-07-10 17:09:00,
2013-07-10 12:14:00,74.1,62.4,30.08,WNW,288,0.0,4.0,67,0.00,,,0.00,821.0,meteohub,2013-07-10 17:14:00,
2013-07-10 12:19:00,74.1,64.9,30.08,WNW,288,3.0,3.0,73,0.00,,,0.00,821.0,meteohub,2013-07-10 17:19:00,
2013-07-10 12:24:00,73.9,63.1,30.08,WSW,253,0.0,3.0,69,0.00,,,0.00,837.0,meteohub,2013-07-10 17:24:00,
2013-07-10 12:29:00,74.5,62.8,30.08,NW,315,1.0,5.0,67,0.00,,,0.00,833.0,meteohub,2013-07-10 17:29:00,
2013-07-10 12:34:00,74.8,63.5,30.08,NE,35,0.0,5.0,68,0.00,,,0.00,842.0,meteohub,2013-07-10 17:34:00,
2013-07-10 12:39:00,74.7,63.3,30.08,West,275,1.0,5.0,68,0.00,,,0.00,838.0,meteohub,2013-07-10 17:39:00,
2013-07-10 12:44:00,74.5,62.4,30.07,NNE,31,0.0,3.0,66,0.00,,,0.00,854.0,meteohub,2013-07-10 17:44:00,
2013-07-10 12:49:00,75.2,62.2,30.07,North,355,0.0,3.0,64,0.00,,,0.00,858.0,meteohub,2013-07-10 17:49:00,
2013-07-10 12:54:00,75.4,64.0,30.07,NE,34,1.0,3.0,68,0.00,,,0.00,861.0,meteohub,2013-07-10 17:54:00,
2013-07-10 12:59:00,75.4,63.7,30.07,West,275,0.0,4.0,67,0.00,,,0.00,868.0,meteohub,2013-07-10 17:59:00,
2013-07-10 13:04:00,75.2,61.7,30.07,NW,309,2.0,4.0,63,0.00,,,0.00,874.0,meteohub,2013-07-10 18:04:00,
2013-07-10 13:09:00,75.0,65.8,30.07,West,274,0.0,4.0,73,0.00,,,0.00,868.0,meteohub,2013-07-10 18:09:00,
2013-07-10 13:14:00,75.2,63.1,30.06,WSW,245,4.0,4.0,66,0.00,,,0.00,870.0,meteohub,2013-07-10 18:14:00,
2013-07-10 13:19:00,75.2,61.7,30.07,North,0,4.0,4.0,63,0.00,,,0.00,868.0,meteohub,2013-07-10 18:19:00,
2013-07-10 13:24:00,75.7,63.5,30.06,NNE,33,0.0,5.0,66,0.00,,,0.00,877.0,meteohub,2013-07-10 18:24:00,
2013-07-10 13:29:00,75.6,63.3,30.07,West,274,1.0,5.0,66,0.00,,,0.00,868.0,meteohub,2013-07-10 18:29:00,
2013-07-10 13:34:00,75.6,63.0,30.06,NE,36,0.0,5.0,65,0.00,,,0.00,867.0,meteohub,2013-07-10 18:34:00,
2013-07-10 13:39:00,75.7,63.1,30.06,West,261,4.0,5.0,65,0.00,,,0.00,867.0,meteohub,2013-07-10 18:39:00,
2013-07-10 13:44:00,75.9,64.2,30.06,NE,37,0.0,5.0,67,0.00,,,0.00,863.0,meteohub,2013-07-10 18:44:00,
2013-07-10 13:49:00,76.6,63.1,30.06,North,5,2.0,5.0,63,0.00,,,0.00,867.0,meteohub,2013-07-10 18:49:00,
2013-07-10 13:54:00,76.1,64.8,30.06,NW,319,1.0,4.0,68,0.00,,,0.00,867.0,meteohub,2013-07-10 18:54:00,
2013-07-10 13:59:00,75.9,60.6,30.06,NW,320,1.0,4.0,59,0.00,,,0.00,868.0,meteohub,2013-07-10 18:59:00,
2013-07-10 14:04:00,76.3,62.2,30.06,NNW,330,0.0,4.0,62,0.00,,,0.00,860.0,meteohub,2013-07-10 19:04:00,
2013-07-10 14:09:00,76.5,63.3,30.06,West,259,1.0,4.0,64,0.00,,,0.00,875.0,meteohub,2013-07-10 19:09:00,
2013-07-10 14:14:00,75.9,61.9,30.06,WNW,289,0.0,4.0,62,0.00,,,0.00,858.0,meteohub,2013-07-10 19:14:00,
2013-07-10 14:19:00,76.1,64.4,30.06,WNW,287,0.0,4.0,67,0.00,,,0.00,858.0,meteohub,2013-07-10 19:19:00,
2013-07-10 14:24:00,76.3,62.2,30.05,West,277,3.0,4.0,62,0.00,,,0.00,858.0,meteohub,2013-07-10 19:24:00,
2013-07-10 14:29:00,76.1,64.8,30.05,WSW,244,2.0,4.0,68,0.00,,,0.00,846.0,meteohub,2013-07-10 19:29:00,
2013-07-10 14:34:00,76.3,65.8,30.05,South,186,0.0,3.0,70,0.00,,,0.00,854.0,meteohub,2013-07-10 19:34:00,
2013-07-10 14:39:00,76.6,62.6,30.05,NW,307,1.0,3.0,62,0.00,,,0.00,838.0,meteohub,2013-07-10 19:39:00,
2013-07-10 14:44:00,76.6,61.2,30.05,West,259,0.0,4.0,59,0.00,,,0.00,837.0,meteohub,2013-07-10 19:44:00,
2013-07-10 14:50:00,76.6,63.1,30.05,West,263,2.0,4.0,63,0.00,,,0.00,840.0,meteohub,2013-07-10 19:50:00,
2013-07-10 14:55:00,76.5,62.4,30.05,North,5,1.0,4.0,62,0.00,,,0.00,837.0,meteohub,2013-07-10 19:55:00,
2013-07-10 15:00:00,76.6,63.1,30.05,West,271,1.0,3.0,63,0.00,,,0.00,824.0,meteohub,2013-07-10 20:00:00,
2013-07-10 15:05:00,76.5,61.5,30.04,SE,143,1.0,4.0,60,0.00,,,0.00,817.0,meteohub,2013-07-10 20:05:00,
2013-07-10 15:10:00,76.6,63.5,30.04,West,281,0.0,4.0,64,0.00,,,0.00,814.0,meteohub,2013-07-10 20:10:00,
2013-07-10 15:15:00,77.2,61.7,30.05,NW,315,1.0,4.0,59,0.00,,,0.00,805.0,meteohub,2013-07-10 20:15:00,
2013-07-10 15:20:00,76.8,62.8,30.05,WNW,288,0.0,5.0,62,0.00,,,0.00,791.0,meteohub,2013-07-10 20:20:00,
2013-07-10 15:25:00,76.8,63.3,30.05,West,266,0.0,5.0,63,0.00,,,0.00,788.0,meteohub,2013-07-10 20:25:00,
2013-07-10 15:30:00,77.4,64.8,30.04,North,0,1.0,4.0,65,0.00,,,0.00,782.0,meteohub,2013-07-10 20:30:00,
2013-07-10 15:35:00,76.8,61.0,30.04,West,279,0.0,4.0,58,0.00,,,0.00,772.0,meteohub,2013-07-10 20:35:00,
2013-07-10 15:40:00,77.2,64.0,30.04,West,279,1.0,4.0,64,0.00,,,0.00,766.0,meteohub,2013-07-10 20:40:00,
2013-07-10 15:45:00,77.2,64.6,30.04,West,279,0.0,3.0,65,0.00,,,0.00,744.0,meteohub,2013-07-10 20:45:00,
2013-07-10 15:50:00,77.4,62.4,30.04,North,355,2.0,3.0,60,0.00,,,0.00,401.0,meteohub,2013-07-10 20:50:00,
2013-07-10 15:55:00,77.4,63.3,30.04,NNW,327,0.0,3.0,62,0.00,,,0.00,731.0,meteohub,2013-07-10 20:55:00,
2013-07-10 16:00:00,77.2,62.2,30.04,NW,317,0.0,3.0,60,0.00,,,0.00,717.0,meteohub,2013-07-10 21:00:00,
2013-07-10 16:05:00,77.7,59.2,30.04,NE,38,0.0,2.0,53,0.00,,,0.00,715.0,meteohub,2013-07-10 21:05:00,
2013-07-10 16:10:00,77.2,60.8,30.04,WNW,291,1.0,2.0,57,0.00,,,0.00,689.0,meteohub,2013-07-10 21:10:00,
2013-07-10 16:15:00,77.2,60.8,30.04,North,5,0.0,3.0,57,0.00,,,0.00,693.0,meteohub,2013-07-10 21:15:00,
2013-07-10 16:20:00,77.2,63.1,30.03,North,5,0.0,3.0,62,0.00,,,0.00,677.0,meteohub,2013-07-10 21:20:00,
2013-07-10 16:25:00,76.6,64.9,30.03,NNW,329,0.0,3.0,67,0.00,,,0.00,664.0,meteohub,2013-07-10 21:25:00,
2013-07-10 16:30:00,76.8,63.3,30.03,NW,304,1.0,2.0,63,0.00,,,0.00,657.0,meteohub,2013-07-10 21:30:00,
2013-07-10 16:35:00,76.8,63.7,30.03,NW,318,0.0,2.0,64,0.00,,,0.00,645.0,meteohub,2013-07-10 21:35:00,
2013-07-10 16:40:00,77.0,63.5,30.02,East,85,0.0,2.0,63,0.00,,,0.00,628.0,meteohub,2013-07-10 21:40:00,
2013-07-10 16:45:00,76.8,61.9,30.02,East,84,1.0,2.0,60,0.00,,,0.00,608.0,meteohub,2013-07-10 21:45:00,
2013-07-10 16:50:00,77.0,58.6,30.02,NE,42,0.0,3.0,53,0.00,,,0.00,232.0,meteohub,2013-07-10 21:50:00,
2013-07-10 16:55:00,76.8,62.4,30.02,NE,42,1.0,3.0,61,0.00,,,0.00,243.0,meteohub,2013-07-10 21:55:00,
2013-07-10 17:00:00,76.8,62.4,30.02,NNW,336,1.0,3.0,61,0.00,,,0.00,320.0,meteohub,2013-07-10 22:00:00,
2013-07-10 17:05:00,76.6,61.2,30.02,NNW,336,0.0,2.0,59,0.00,,,0.00,274.0,meteohub,2013-07-10 22:05:00,
2013-07-10 17:10:00,76.6,63.5,30.02,NNW,336,0.0,2.0,64,0.00,,,0.00,221.0,meteohub,2013-07-10 22:10:00,
2013-07-10 17:15:00,76.6,64.0,30.02,WNW,297,0.0,2.0,65,0.00,,,0.00,301.0,meteohub,2013-07-10 22:15:00,
2013-07-10 17:20:00,76.1,63.5,30.02,WNW,297,0.0,2.0,65,0.00,,,0.00,239.0,meteohub,2013-07-10 22:20:00,
2013-07-10 17:25:00,75.6,62.1,30.01,WNW,297,0.0,2.0,63,0.00,,,0.00,469.0,meteohub,2013-07-10 22:25:00,
2013-07-10 17:30:00,75.7,60.8,30.02,NNW,346,0.0,2.0,60,0.00,,,0.00,135.0,meteohub,2013-07-10 22:30:00,
2013-07-10 17:35:00,75.6,63.9,30.01,NNW,346,0.0,2.0,67,0.00,,,0.00,120.0,meteohub,2013-07-10 22:35:00,
2013-07-10 17:40:00,75.4,64.9,30.01,NNW,346,0.0,2.0,70,0.00,,,0.00,98.0,meteohub,2013-07-10 22:40:00,
2013-07-10 17:45:00,75.4,65.3,30.01,NNW,346,0.0,2.0,71,0.00,,,0.00,97.0,meteohub,2013-07-10 22:45:00,
2013-07-10 17:50:00,75.9,61.5,30.01,NNW,346,0.0,2.0,61,0.00,,,0.00,93.0,meteohub,2013-07-10 22:50:00,
2013-07-10 17:55:00,76.1,60.3,30.01,NNW,344,0.0,2.0,58,0.00,,,0.00,91.0,meteohub,2013-07-10 22:55:00,
2013-07-10 18:01:00,76.1,63.5,30.01,NNW,344,0.0,2.0,65,0.00,,,0.00,90.0,meteohub,2013-07-10 23:01:00,
2013-07-10 18:06:00,75.9,61.5,30.01,NNW,344,0.0,2.0,61,0.00,,,0.00,125.0,meteohub,2013-07-10 23:06:00,
2013-07-10 18:11:00,75.7,62.8,30.01,NNW,344,0.0,1.0,64,0.00,,,0.00,88.0,meteohub,2013-07-10 23:11:00,
2013-07-10 18:16:00,75.9,63.3,30.01,NNW,344,0.0,1.0,65,0.00,,,0.00,83.0,meteohub,2013-07-10 23:16:00,
2013-07-10 18:21:00,75.4,61.5,30.01,NNW,344,0.0,1.0,62,0.00,,,0.00,81.0,meteohub,2013-07-10 23:21:00,
2013-07-10 18:26:00,74.8,61.0,30.01,NNW,344,0.0,1.0,62,0.00,,,0.00,79.0,meteohub,2013-07-10 23:26:00,
2013-07-10 18:27:00,74.8,60.4,30.01,NNW,344,0.0,1.0,61,0.00,,,0.00,79.0,meteohub,2013-07-10 23:27:00,
2013-07-10 18:32:00,74.8,59.0,30.00,NNW,344,0.0,0.0,58,0.00,,,0.00,77.0,meteohub,2013-07-10 23:32:00,
2013-07-10 18:37:00,74.7,63.0,30.01,NNW,344,0.0,0.0,67,0.00,,,0.00,118.0,meteohub,2013-07-10 23:37:00,
2013-07-10 18:42:00,74.5,61.0,30.01,NNW,344,0.0,0.0,63,0.00,,,0.00,244.0,meteohub,2013-07-10 23:42:00,
2013-07-10 18:47:00,75.0,63.7,30.01,NNW,344,0.0,0.0,68,0.00,,,0.00,260.0,meteohub,2013-07-10 23:47:00,
2013-07-10 18:52:00,75.0,64.6,30.01,NNW,344,0.0,0.0,70,0.00,,,0.00,105.0,meteohub,2013-07-10 23:52:00,
2013-07-10 18:57:00,74.7,64.6,30.01,NNW,344,0.0,0.0,71,0.00,,,0.00,67.0,meteohub,2013-07-10 23:57:00,
2013-07-10 19:02:00,75.0,61.2,30.01,NNW,344,0.0,0.0,62,0.00,,,0.00,63.0,meteohub,2013-07-11 00:02:00,
2013-07-10 19:07:00,74.8,63.1,30.01,NNW,344,0.0,1.0,67,0.00,,,0.00,62.0,meteohub,2013-07-11 00:07:00,
2013-07-10 19:12:00,74.1,61.5,30.01,NNW,344,0.0,1.0,65,0.00,,,0.00,60.0,meteohub,2013-07-11 00:12:00,
2013-07-10 19:17:00,73.9,63.1,30.01,NNW,344,0.0,0.0,69,0.00,,,0.00,56.0,meteohub,2013-07-11 00:17:00,
2013-07-10 19:22:00,73.6,62.8,30.01,NNW,344,0.0,0.0,69,0.00,,,0.00,54.0,meteohub,2013-07-11 00:22:00,
2013-07-10 19:27:00,73.2,62.1,30.01,NNW,344,0.0,0.0,68,0.00,,,0.00,54.0,meteohub,2013-07-11 00:27:00,
2013-07-10 19:32:00,73.2,62.8,30.01,NNW,344,0.0,0.0,70,0.00,,,0.00,49.0,meteohub,2013-07-11 00:32:00,
2013-07-10 19:37:00,73.2,64.8,30.01,NNW,344,0.0,0.0,75,0.00,,,0.00,46.0,meteohub,2013-07-11 00:37:00,
2013-07-10 19:42:00,72.9,61.3,30.01,NNW,344,0.0,0.0,67,0.00,,,0.00,44.0,meteohub,2013-07-11 00:42:00,
2013-07-10 19:47:00,72.9,61.3,30.00,NNW,344,0.0,0.0,67,0.00,,,0.00,42.0,meteohub,2013-07-11 00:47:00,
2013-07-10 19:52:00,72.9,62.1,30.00,NNW,344,0.0,0.0,69,0.00,,,0.00,39.0,meteohub,2013-07-11 00:52:00,
2013-07-10 19:57:00,72.7,64.2,30.00,NNW,344,0.0,0.0,75,0.00,,,0.00,37.0,meteohub,2013-07-11 00:57:00,
2013-07-10 20:02:00,72.5,63.0,30.00,NNW,343,0.0,0.0,72,0.00,,,0.00,33.0,meteohub,2013-07-11 01:02:00,
2013-07-10 20:07:00,72.3,62.1,30.00,NNW,343,0.0,0.0,70,0.00,,,0.00,32.0,meteohub,2013-07-11 01:07:00,
2013-07-10 20:12:00,72.3,61.5,30.00,NNW,343,0.0,0.0,69,0.00,,,0.00,30.0,meteohub,2013-07-11 01:12:00,
2013-07-10 20:17:00,72.3,61.5,30.00,NNW,343,0.0,0.0,69,0.00,,,0.00,26.0,meteohub,2013-07-11 01:17:00,
2013-07-10 20:22:00,72.0,60.4,30.00,NNW,343,0.0,0.0,67,0.00,,,0.00,25.0,meteohub,2013-07-11 01:22:00,
2013-07-10 20:27:00,72.0,61.2,30.00,NNW,343,0.0,0.0,69,0.00,,,0.00,21.0,meteohub,2013-07-11 01:27:00,
2013-07-10 20:32:00,71.8,61.5,30.00,NNW,343,0.0,0.0,70,0.00,,,0.00,19.0,meteohub,2013-07-11 01:32:00,
2013-07-10 20:37:00,71.4,61.5,30.00,NNW,343,0.0,0.0,71,0.00,,,0.00,16.0,meteohub,2013-07-11 01:37:00,
2013-07-10 20:42:00,71.2,60.1,30.00,NNW,343,0.0,0.0,68,0.00,,,0.00,14.0,meteohub,2013-07-11 01:42:00,
2013-07-10 20:47:00,71.1,58.6,30.00,NNW,343,0.0,0.0,65,0.00,,,0.00,12.0,meteohub,2013-07-11 01:47:00,
2013-07-10 20:52:00,70.9,58.5,30.00,NNW,343,0.0,0.0,65,0.00,,,0.00,9.0,meteohub,2013-07-11 01:52:00,
2013-07-10 20:57:00,70.7,59.2,30.01,NNW,343,0.0,0.0,67,0.00,,,0.00,7.0,meteohub,2013-07-11 01:57:00,
2013-07-10 21:02:00,70.3,59.4,30.01,NNW,343,0.0,0.0,68,0.00,,,0.00,5.0,meteohub,2013-07-11 02:02:00,
2013-07-10 21:07:00,70.2,59.2,30.01,NNW,343,0.0,0.0,68,0.00,,,0.00,0.0,meteohub,2013-07-11 02:07:00,
2013-07-10 21:12:00,69.8,59.5,30.01,NNW,343,0.0,0.0,70,0.00,,,0.00,0.0,meteohub,2013-07-11 02:12:00,
2013-07-10 21:17:00,69.4,59.5,30.01,NNW,343,0.0,0.0,71,0.00,,,0.00,0.0,meteohub,2013-07-11 02:17:00,
2013-07-10 21:22:00,69.4,59.5,30.01,NNW,343,0.0,0.0,71,0.00,,,0.00,0.0,meteohub,2013-07-11 02:22:00,
2013-07-10 21:27:00,69.3,59.5,30.02,NNW,343,0.0,0.0,71,0.00,,,0.00,0.0,meteohub,2013-07-11 02:27:00,
2013-07-10 21:28:00,69.3,59.5,30.02,NNW,343,0.0,0.0,71,0.00,,,0.00,0.0,meteohub,2013-07-11 02:28:00,
2013-07-10 21:33:00,69.1,60.8,30.02,NNW,343,0.0,0.0,75,0.00,,,0.00,0.0,meteohub,2013-07-11 02:33:00,
2013-07-10 21:38:00,68.7,59.4,30.02,NNW,343,0.0,0.0,72,0.00,,,0.00,0.0,meteohub,2013-07-11 02:38:00,
2013-07-10 21:43:00,68.5,59.9,30.02,NNW,343,0.0,0.0,74,0.00,,,0.00,0.0,meteohub,2013-07-11 02:43:00,
2013-07-10 21:48:00,68.2,60.3,30.02,NNW,343,0.0,0.0,76,0.00,,,0.00,0.0,meteohub,2013-07-11 02:48:00,
2013-07-10 21:53:00,67.8,58.8,30.02,NNW,343,0.0,0.0,73,0.00,,,0.00,0.0,meteohub,2013-07-11 02:53:00,
2013-07-10 21:58:00,67.8,59.2,30.03,NNW,343,0.0,0.0,74,0.00,,,0.00,0.0,meteohub,2013-07-11 02:58:00,
2013-07-10 22:03:00,67.6,59.0,30.03,NNW,343,0.0,0.0,74,0.00,,,0.00,0.0,meteohub,2013-07-11 03:03:00,
2013-07-10 22:08:00,67.6,60.3,30.03,NNW,343,0.0,0.0,77,0.00,,,0.00,0.0,meteohub,2013-07-11 03:08:00,
2013-07-10 22:13:00,67.3,60.3,30.03,NNW,343,0.0,0.0,78,0.00,,,0.00,0.0,meteohub,2013-07-11 03:13:00,
2013-07-10 22:18:00,67.3,60.3,30.03,NNW,343,0.0,0.0,78,0.00,,,0.00,0.0,meteohub,2013-07-11 03:18:00,
2013-07-10 22:23:00,67.5,61.3,30.03,NNW,343,0.0,0.0,81,0.00,,,0.00,0.0,meteohub,2013-07-11 03:23:00,
2013-07-10 22:28:00,67.3,61.2,30.03,NNW,343,0.0,0.0,81,0.00,,,0.00,0.0,meteohub,2013-07-11 03:28:00,
2013-07-10 22:33:00,67.3,61.2,30.03,NNW,343,0.0,1.0,81,0.00,,,0.00,0.0,meteohub,2013-07-11 03:33:00,
2013-07-10 22:38:00,66.9,61.0,30.04,NNW,343,0.0,1.0,81,0.00,,,0.00,0.0,meteohub,2013-07-11 03:38:00,
2013-07-10 22:43:00,66.9,61.2,30.04,NNW,343,0.0,1.0,82,0.00,,,0.00,0.0,meteohub,2013-07-11 03:43:00,
2013-07-10 22:48:00,66.7,61.0,30.04,NNW,343,0.0,0.0,82,0.00,,,0.00,0.0,meteohub,2013-07-11 03:48:00,
2013-07-10 22:53:00,66.2,61.2,30.04,NNW,343,0.0,0.0,84,0.00,,,0.00,0.0,meteohub,2013-07-11 03:53:00,
2013-07-10 22:58:00,66.2,61.5,30.04,NNW,343,0.0,0.0,85,0.00,,,0.00,0.0,meteohub,2013-07-11 03:58:00,
2013-07-10 23:01:00,66.2,61.5,30.04,NNW,343,0.0,0.0,85,0.00,,,0.00,0.0,meteohub,2013-07-11 04:01:00,
2013-07-10 23:02:00,66.2,61.5,30.04,NNW,343,0.0,0.0,85,0.00,,,0.00,0.0,meteohub,2013-07-11 04:02:00,
2013-07-10 23:07:00,66.4,61.0,30.04,NNW,343,0.0,0.0,83,0.00,,,0.00,0.0,meteohub,2013-07-11 04:07:00,
2013-07-10 23:12:00,66.6,61.2,30.04,NNW,343,0.0,1.0,83,0.00,,,0.00,0.0,meteohub,2013-07-11 04:12:00,
2013-07-10 23:17:00,66.4,61.0,30.04,NNW,343,0.0,1.0,83,0.00,,,0.00,0.0,meteohub,2013-07-11 04:17:00,
2013-07-10 23:22:00,66.2,60.8,30.04,NNW,343,0.0,1.0,83,0.00,,,0.00,0.0,meteohub,2013-07-11 04:22:00,
2013-07-10 23:27:00,66.0,60.6,30.04,NNW,343,0.0,0.0,83,0.00,,,0.00,0.0,meteohub,2013-07-11 04:27:00,
2013-07-10 23:32:00,65.8,60.6,30.04,NNW,343,0.0,0.0,83,0.00,,,0.00,0.0,meteohub,2013-07-11 04:32:00,
2013-07-10 23:37:00,65.7,60.6,30.04,NNW,343,0.0,0.0,84,0.00,,,0.00,0.0,meteohub,2013-07-11 04:37:00,
2013-07-10 23:42:00,65.5,60.4,30.04,NNW,343,0.0,0.0,84,0.00,,,0.00,0.0,meteohub,2013-07-11 04:42:00,
2013-07-10 23:47:00,65.1,60.4,30.04,NNW,343,0.0,0.0,85,0.00,,,0.00,0.0,meteohub,2013-07-11 04:47:00,
2013-07-10 23:52:00,64.8,60.4,30.04,NNW,343,0.0,0.0,86,0.00,,,0.00,0.0,meteohub,2013-07-11 04:52:00,
2013-07-10 23:57:00,64.6,60.3,30.04,NNW,343,0.0,0.0,86,0.00,,,0.00,0.0,meteohub,2013-07-11 04:57:00,